Time,TemperatureF,DewpointF,PressureIn,WindDirection,WindDirectionDegrees,WindSpeedMPH,WindSpeedGustMPH,Humidity,HourlyPrecipIn,Conditions,Clouds,dailyrainin,SoftwareType,DateUTC
2013-01-24 00:04:00,7.2,-18.4,30.32,WSW,249,0.0,0.0,29,0.00,NA,NA,-99.99,VWS Version 10.38,2013-01-24 05:04:00,
2013-01-24 00:09:00,7.2,-18.4,30.32,WSW,249,0.0,0.0,29,0.00,NA,NA,-99.99,VWS Version 10.38,2013-01-24 05:09:00,
2013-01-24 00:14:00,7.0,-18.6,30.32,WSW,249,0.0,0.0,29,0.00,NA,NA,-99.99,VWS Version 10.38,2013-01-24 05:14:00,
2013-01-24 00:19:00,6.8,-18.7,30.32,WSW,249,0.0,0.0,29,0.00,NA,NA,-99.99,VWS Version 10.38,2013-01-24 05:19:00,
2013-01-24 00:25:00,6.6,-18.9,30.32,WSW,254,0.0,0.0,29,0.00,NA,NA,-99.99,VWS Version 10.38,2013-01-24 05:25:00,
2013-01-24 02:34:00,3.4,-21.7,30.32,West,276,0.0,0.0,29,0.00,NA,NA,-99.99,VWS Version 10.38,2013-01-24 07:34:00,
2013-01-24 02:44:00,3.0,-22.0,30.32,West,276,0.0,0.0,29,0.00,NA,NA,-99.99,VWS Version 10.38,2013-01-24 07:44:00,
2013-01-24 02:49:00,2.8,-22.2,30.29,West,276,0.0,0.0,29,0.00,NA,NA,-99.99,VWS Version 10.38,2013-01-24 07:49:00,
2013-01-24 02:54:00,2.7,-22.4,30.29,West,276,0.0,0.0,29,0.00,NA,NA,-99.99,VWS Version 10.38,2013-01-24 07:54:00,
2013-01-24 02:59:00,2.5,-22.5,30.29,West,276,0.0,0.0,29,0.00,NA,NA,-99.99,VWS Version 10.38,2013-01-24 07:59:00,
2013-01-24 03:04:00,2.1,-22.8,30.29,West,276,0.0,0.0,29,0.00,NA,NA,-99.99,VWS Version 10.38,2013-01-24 08:04:00,
2013-01-24 03:09:00,1.9,-23.0,30.29,West,276,0.0,0.0,29,0.00,NA,NA,-99.99,VWS Version 10.38,2013-01-24 08:09:00,
2013-01-24 03:14:00,1.9,-23.0,30.29,West,276,0.0,0.0,29,0.00,NA,NA,-99.99,VWS Version 10.38,2013-01-24 08:14:00,
2013-01-24 03:24:00,1.9,-23.0,30.29,West,276,0.0,0.0,29,0.00,NA,NA,-99.99,VWS Version 10.38,2013-01-24 08:24:00,
2013-01-24 03:29:00,2.1,-22.8,30.29,West,276,0.0,0.0,29,0.00,NA,NA,-99.99,VWS Version 10.38,2013-01-24 08:29:00,
2013-01-24 03:39:00,1.9,-23.0,30.29,West,276,0.0,0.0,29,0.00,NA,NA,-99.99,VWS Version 10.38,2013-01-24 08:39:00,
2013-01-24 03:44:00,1.9,-23.0,30.29,West,276,0.0,0.0,29,0.00,NA,NA,-99.99,VWS Version 10.38,2013-01-24 08:44:00,
2013-01-24 03:49:00,1.8,-23.1,30.29,West,276,0.0,0.0,29,0.00,NA,NA,-99.99,VWS Version 10.38,2013-01-24 08:49:00,
2013-01-24 03:54:00,1.8,-23.1,30.29,West,276,0.0,0.0,29,0.00,NA,NA,-99.99,VWS Version 10.38,2013-01-24 08:54:00,
2013-01-24 04:04:00,1.6,-23.3,30.29,West,276,0.0,0.0,29,0.00,NA,NA,-99.99,VWS Version 10.38,2013-01-24 09:04:00,
2013-01-24 04:09:00,1.4,-23.5,30.29,West,276,0.0,0.0,29,0.00,NA,NA,-99.99,VWS Version 10.38,2013-01-24 09:09:00,
2013-01-24 04:14:00,1.4,-23.5,30.29,West,276,0.0,0.0,29,0.00,NA,NA,-99.99,VWS Version 10.38,2013-01-24 09:14:00,
2013-01-24 04:19:00,1.6,-23.3,30.29,West,276,0.0,0.0,29,0.00,NA,NA,-99.99,VWS Version 10.38,2013-01-24 09:19:00,
2013-01-24 04:24:00,1.8,-23.1,30.29,West,276,0.0,0.0,29,0.00,NA,NA,-99.99,VWS Version 10.38,2013-01-24 09:24:00,
2013-01-24 04:29:00,1.9,-23.0,30.29,West,276,0.0,0.0,29,0.00,NA,NA,-99.99,VWS Version 10.38,2013-01-24 09:29:00,
2013-01-24 04:39:00,2.3,-22.7,30.29,West,276,0.0,0.0,29,0.00,NA,NA,-99.99,VWS Version 10.38,2013-01-24 09:39:00,
2013-01-24 04:44:00,2.5,-22.5,30.29,West,276,0.0,0.0,29,0.00,NA,NA,-99.99,VWS Version 10.38,2013-01-24 09:44:00,
2013-01-24 04:49:00,2.8,-22.2,30.29,West,276,0.0,0.0,29,0.00,NA,NA,-99.99,VWS Version 10.38,2013-01-24 09:49:00,
2013-01-24 04:59:00,2.7,-22.4,30.29,West,276,0.0,0.0,29,0.00,NA,NA,-99.99,VWS Version 10.38,2013-01-24 09:59:00,
2013-01-24 05:09:00,2.5,-22.5,30.29,West,276,0.0,0.0,29,0.00,NA,NA,-99.99,VWS Version 10.38,2013-01-24 10:09:00,
2013-01-24 05:19:00,2.7,-22.4,30.29,West,276,0.0,0.0,29,0.00,NA,NA,-99.99,VWS Version 10.38,2013-01-24 10:19:00,
2013-01-24 05:24:00,2.8,-22.2,30.29,West,276,0.0,0.0,29,0.00,NA,NA,-99.99,VWS Version 10.38,2013-01-24 10:24:00,
2013-01-24 05:29:00,2.7,-22.4,30.29,West,276,0.0,0.0,29,0.00,NA,NA,-99.99,VWS Version 10.38,2013-01-24 10:29:00,
2013-01-24 05:34:00,2.8,-22.2,30.29,West,276,0.0,0.0,29,0.00,NA,NA,-99.99,VWS Version 10.38,2013-01-24 10:34:00,
2013-01-24 05:39:00,2.8,-22.2,30.29,West,276,0.0,0.0,29,0.00,NA,NA,-99.99,VWS Version 10.38,2013-01-24 10:39:00,
2013-01-24 05:44:00,2.8,-22.2,30.29,West,276,0.0,0.0,29,0.00,NA,NA,-99.99,VWS Version 10.38,2013-01-24 10:44:00,
2013-01-24 05:54:00,2.5,-22.5,30.29,West,276,0.0,0.0,29,0.00,NA,NA,-99.99,VWS Version 10.38,2013-01-24 10:54:00,
2013-01-24 05:59:00,2.3,-22.7,30.29,West,276,0.0,0.0,29,0.00,NA,NA,-99.99,VWS Version 10.38,2013-01-24 10:59:00,
2013-01-24 06:09:00,1.9,-23.0,30.29,West,276,0.0,0.0,29,0.00,NA,NA,-99.99,VWS Version 10.38,2013-01-24 11:09:00,
2013-01-24 06:14:00,2.1,-22.8,30.29,West,276,0.0,0.0,29,0.00,NA,NA,-99.99,VWS Version 10.38,2013-01-24 11:14:00,
2013-01-24 06:19:00,2.3,-22.7,30.29,West,276,0.0,0.0,29,0.00,NA,NA,-99.99,VWS Version 10.38,2013-01-24 11:19:00,
2013-01-24 06:24:00,2.3,-22.7,30.29,West,276,0.0,0.0,29,0.00,NA,NA,-99.99,VWS Version 10.38,2013-01-24 11:24:00,
2013-01-24 14:20:00,20.8,-9.4,30.26,WNW,286,2.7,2.7,25,0.00,NA,NA,-99.99,VWS Version 10.38,2013-01-24 19:20:00,
2013-01-24 14:30:00,20.7,-9.6,30.29,NW,315,8.3,8.3,25,0.00,NA,NA,-99.99,VWS Version 10.38,2013-01-24 19:30:00,
2013-01-24 14:35:00,20.8,-9.4,30.29,West,279,5.8,5.8,25,0.00,NA,NA,-99.99,VWS Version 10.38,2013-01-24 19:35:00,
2013-01-24 14:40:00,20.5,-9.7,30.29,WNW,291,8.1,8.1,25,0.00,NA,NA,-99.99,VWS Version 10.38,2013-01-24 19:40:00,
2013-01-24 14:45:00,20.3,-9.9,30.29,NE,35,3.6,3.6,25,0.00,NA,NA,-99.99,VWS Version 10.38,2013-01-24 19:45:00,
2013-01-24 14:50:00,20.5,-9.7,30.29,WNW,289,6.3,6.3,25,0.00,NA,NA,-99.99,VWS Version 10.38,2013-01-24 19:50:00,
2013-01-24 15:00:00,20.8,-9.4,30.29,WNW,300,6.3,6.3,25,0.00,NA,NA,-99.99,VWS Version 10.38,2013-01-24 20:00:00,
2013-01-24 15:05:00,20.8,-9.4,30.29,WNW,297,5.4,5.4,25,0.00,NA,NA,-99.99,VWS Version 10.38,2013-01-24 20:05:00,
2013-01-24 15:10:00,21.0,-9.3,30.29,WNW,292,13.2,13.2,25,0.00,NA,NA,-99.99,VWS Version 10.38,2013-01-24 20:10:00,
2013-01-24 15:15:00,20.8,-9.4,30.29,NNW,346,8.1,8.1,25,0.00,NA,NA,-99.99,VWS Version 10.38,2013-01-24 20:15:00,
2013-01-24 15:20:00,20.7,-9.6,30.29,West,281,10.5,10.5,25,0.00,NA,NA,-99.99,VWS Version 10.38,2013-01-24 20:20:00,
2013-01-24 15:25:00,20.7,-9.6,30.29,NW,304,8.1,8.1,25,0.00,NA,NA,-99.99,VWS Version 10.38,2013-01-24 20:25:00,
2013-01-24 15:34:00,20.7,-9.6,30.29,West,264,5.4,5.4,25,0.00,NA,NA,-99.99,VWS Version 10.38,2013-01-24 20:34:00,
2013-01-24 15:39:00,20.5,-9.7,30.29,SW,222,11.0,11.0,25,0.00,NA,NA,-99.99,VWS Version 10.38,2013-01-24 20:39:00,
2013-01-24 15:44:00,20.3,-9.9,30.29,NW,307,4.0,4.0,25,0.00,NA,NA,-99.99,VWS Version 10.38,2013-01-24 20:44:00,
2013-01-24 15:49:00,20.3,-9.9,30.29,NNW,334,10.1,10.1,25,0.00,NA,NA,-99.99,VWS Version 10.38,2013-01-24 20:49:00,
2013-01-24 15:54:00,20.3,-9.9,30.29,WNW,289,8.7,8.7,25,0.00,NA,NA,-99.99,VWS Version 10.38,2013-01-24 20:54:00,
2013-01-24 15:59:00,20.1,-10.1,30.29,West,280,8.3,8.3,25,0.00,NA,NA,-99.99,VWS Version 10.38,2013-01-24 20:59:00,
2013-01-24 16:04:00,19.8,-10.4,30.29,NNW,327,5.8,5.8,25,0.00,NA,NA,-99.99,VWS Version 10.38,2013-01-24 21:04:00,
2013-01-24 16:14:00,19.4,-10.7,30.29,West,280,10.1,10.1,25,0.00,NA,NA,-99.99,VWS Version 10.38,2013-01-24 21:14:00,
2013-01-24 16:19:00,19.0,-11.0,30.32,WSW,238,6.7,6.7,25,0.00,NA,NA,-99.99,VWS Version 10.38,2013-01-24 21:19:00,
2013-01-24 16:24:00,18.7,-11.3,30.32,WNW,301,8.1,8.1,25,0.00,NA,NA,-99.99,VWS Version 10.38,2013-01-24 21:24:00,
2013-01-24 16:29:00,18.3,-11.6,30.32,NW,307,8.1,8.1,25,0.00,NA,NA,-99.99,VWS Version 10.38,2013-01-24 21:29:00,
2013-01-24 16:34:00,17.8,-12.1,30.32,WSW,257,15.0,15.0,25,0.00,NA,NA,-99.99,VWS Version 10.38,2013-01-24 21:34:00,
2013-01-24 16:39:00,17.6,-11.4,30.32,WNW,293,10.5,10.5,26,0.00,NA,NA,-99.99,VWS Version 10.38,2013-01-24 21:39:00,
2013-01-24 16:44:00,17.4,-11.6,30.32,WSW,254,7.6,7.6,26,0.00,NA,NA,-99.99,VWS Version 10.38,2013-01-24 21:44:00,
2013-01-24 16:54:00,16.7,-12.2,30.32,West,270,5.8,5.8,26,0.00,NA,NA,-99.99,VWS Version 10.38,2013-01-24 21:54:00,
2013-01-24 16:59:00,16.5,-12.4,30.32,West,269,5.8,5.8,26,0.00,NA,NA,-99.99,VWS Version 10.38,2013-01-24 21:59:00,
2013-01-24 17:04:00,16.3,-12.5,30.32,West,271,5.4,5.4,26,0.00,NA,NA,-99.99,VWS Version 10.38,2013-01-24 22:04:00,
2013-01-24 17:09:00,16.2,-12.7,30.32,SW,224,4.0,4.0,26,0.00,NA,NA,-99.99,VWS Version 10.38,2013-01-24 22:09:00,
2013-01-24 17:14:00,16.0,-12.8,30.32,NW,318,8.3,8.3,26,0.00,NA,NA,-99.99,VWS Version 10.38,2013-01-24 22:14:00,
2013-01-24 17:19:00,15.8,-13.0,30.32,WNW,288,5.4,5.4,26,0.00,NA,NA,-99.99,VWS Version 10.38,2013-01-24 22:19:00,
2013-01-24 17:29:00,15.6,-13.1,30.32,NW,313,4.0,4.0,26,0.00,NA,NA,-99.99,VWS Version 10.38,2013-01-24 22:29:00,
2013-01-24 17:34:00,15.4,-13.3,30.35,West,261,12.3,12.3,26,0.00,NA,NA,-99.99,VWS Version 10.38,2013-01-24 22:34:00,
2013-01-24 17:39:00,15.6,-13.1,30.35,West,264,4.9,4.9,26,0.00,NA,NA,-99.99,VWS Version 10.38,2013-01-24 22:39:00,
2013-01-24 17:44:00,15.3,-13.5,30.35,NW,304,3.6,3.6,26,0.00,NA,NA,-99.99,VWS Version 10.38,2013-01-24 22:44:00,
2013-01-24 17:49:00,15.1,-13.6,30.35,WNW,286,10.1,10.1,26,0.00,NA,NA,-99.99,VWS Version 10.38,2013-01-24 22:49:00,
2013-01-24 17:54:00,15.3,-13.5,30.35,WNW,297,6.7,6.7,26,0.00,NA,NA,-99.99,VWS Version 10.38,2013-01-24 22:54:00,
2013-01-24 17:59:00,15.3,-13.5,30.35,WNW,302,8.7,8.7,26,0.00,NA,NA,-99.99,VWS Version 10.38,2013-01-24 22:59:00,
2013-01-24 18:09:00,15.3,-13.5,30.35,WNW,285,4.9,4.9,26,0.00,NA,NA,-99.99,VWS Version 10.38,2013-01-24 23:09:00,
2013-01-24 18:14:00,15.4,-13.3,30.35,NW,313,5.8,5.8,26,0.00,NA,NA,-99.99,VWS Version 10.38,2013-01-24 23:14:00,
2013-01-24 18:19:00,15.3,-13.5,30.35,WNW,302,5.4,5.4,26,0.00,NA,NA,-99.99,VWS Version 10.38,2013-01-24 23:19:00,
2013-01-24 18:24:00,15.1,-13.6,30.35,WSW,256,3.1,3.1,26,0.00,NA,NA,-99.99,VWS Version 10.38,2013-01-24 23:24:00,
2013-01-24 18:39:00,14.5,-14.1,30.35,NNW,330,2.7,2.7,26,0.00,NA,NA,-99.99,VWS Version 10.38,2013-01-24 23:39:00,
2013-01-24 18:44:00,14.4,-14.2,30.35,West,259,5.4,5.4,26,0.00,NA,NA,-99.99,VWS Version 10.38,2013-01-24 23:44:00,
2013-01-24 18:49:00,14.4,-14.2,30.38,West,276,8.7,8.7,26,0.00,NA,NA,-99.99,VWS Version 10.38,2013-01-24 23:49:00,
2013-01-24 18:54:00,14.4,-14.2,30.38,West,278,4.0,4.0,26,0.00,NA,NA,-99.99,VWS Version 10.38,2013-01-24 23:54:00,
2013-01-24 18:59:00,14.4,-14.2,30.38,SW,233,3.6,3.6,26,0.00,NA,NA,-99.99,VWS Version 10.38,2013-01-24 23:59:00,
2013-01-24 19:09:00,14.0,-13.8,30.38,NW,321,5.4,5.4,27,0.00,NA,NA,-99.99,VWS Version 10.38,2013-01-25 00:09:00,
2013-01-24 19:19:00,13.8,-14.0,30.38,SSW,213,5.4,5.4,27,0.00,NA,NA,-99.99,VWS Version 10.38,2013-01-25 00:19:00,
2013-01-24 19:24:00,13.8,-14.0,30.38,NW,308,5.4,5.4,27,0.00,NA,NA,-99.99,VWS Version 10.38,2013-01-25 00:24:00,
2013-01-24 19:29:00,13.8,-14.0,30.38,NW,305,3.6,3.6,27,0.00,NA,NA,-99.99,VWS Version 10.38,2013-01-25 00:29:00,
2013-01-24 19:34:00,13.8,-14.0,30.38,West,266,7.2,7.2,27,0.00,NA,NA,-99.99,VWS Version 10.38,2013-01-25 00:34:00,
2013-01-24 19:39:00,13.6,-14.1,30.38,North,353,4.9,4.9,27,0.00,NA,NA,-99.99,VWS Version 10.38,2013-01-25 00:39:00,
2013-01-24 19:44:00,13.6,-14.1,30.38,WSW,254,5.8,5.8,27,0.00,NA,NA,-99.99,VWS Version 10.38,2013-01-25 00:44:00,
2013-01-24 19:49:00,13.6,-14.1,30.38,West,262,2.2,2.2,27,0.00,NA,NA,-99.99,VWS Version 10.38,2013-01-25 00:49:00,
2013-01-24 19:59:00,13.6,-14.1,30.38,WSW,246,3.1,3.1,27,0.00,NA,NA,-99.99,VWS Version 10.38,2013-01-25 00:59:00,
2013-01-24 20:04:00,13.6,-14.1,30.38,WSW,246,4.0,4.0,27,0.00,NA,NA,-99.99,VWS Version 10.38,2013-01-25 01:04:00,
2013-01-24 20:09:00,13.5,-14.3,30.38,NE,49,4.9,4.9,27,0.00,NA,NA,-99.99,VWS Version 10.38,2013-01-25 01:09:00,
2013-01-24 20:14:00,13.6,-14.1,30.38,North,10,5.4,5.4,27,0.00,NA,NA,-99.99,VWS Version 10.38,2013-01-25 01:14:00,
2013-01-24 20:19:00,13.5,-14.3,30.38,WNW,301,0.0,0.0,27,0.00,NA,NA,-99.99,VWS Version 10.38,2013-01-25 01:19:00,
2013-01-24 20:29:00,12.9,-14.8,30.38,WSW,247,0.0,0.0,27,0.00,NA,NA,-99.99,VWS Version 10.38,2013-01-25 01:29:00,
2013-01-24 20:34:00,12.7,-14.9,30.41,West,271,0.0,0.0,27,0.00,NA,NA,-99.99,VWS Version 10.38,2013-01-25 01:34:00,
2013-01-24 20:39:00,12.6,-15.1,30.41,NE,47,4.0,4.0,27,0.00,NA,NA,-99.99,VWS Version 10.38,2013-01-25 01:39:00,
2013-01-24 20:44:00,12.6,-15.1,30.41,NE,41,3.1,3.1,27,0.00,NA,NA,-99.99,VWS Version 10.38,2013-01-25 01:44:00,
2013-01-24 20:49:00,12.4,-15.2,30.41,NW,315,2.7,2.7,27,0.00,NA,NA,-99.99,VWS Version 10.38,2013-01-25 01:49:00,
2013-01-24 20:54:00,12.2,-15.4,30.41,West,277,6.3,6.3,27,0.00,NA,NA,-99.99,VWS Version 10.38,2013-01-25 01:54:00,
2013-01-24 20:59:00,12.2,-15.4,30.41,NW,318,4.9,4.9,27,0.00,NA,NA,-99.99,VWS Version 10.38,2013-01-25 01:59:00,
2013-01-24 21:09:00,12.4,-15.2,30.41,NW,305,8.1,8.1,27,0.00,NA,NA,-99.99,VWS Version 10.38,2013-01-25 02:09:00,
2013-01-24 21:19:00,12.9,-14.8,30.41,West,278,8.3,8.3,27,0.00,NA,NA,-99.99,VWS Version 10.38,2013-01-25 02:19:00,
2013-01-24 21:24:00,12.9,-14.8,30.41,NW,316,6.3,6.3,27,0.00,NA,NA,-99.99,VWS Version 10.38,2013-01-25 02:24:00,
2013-01-24 21:29:00,12.9,-14.8,30.41,NW,321,10.1,10.1,27,0.00,NA,NA,-99.99,VWS Version 10.38,2013-01-25 02:29:00,
2013-01-24 21:34:00,12.9,-14.8,30.41,WSW,254,7.6,7.6,27,0.00,NA,NA,-99.99,VWS Version 10.38,2013-01-25 02:34:00,
2013-01-24 21:44:00,12.7,-14.9,30.41,North,357,6.3,6.3,27,0.00,NA,NA,-99.99,VWS Version 10.38,2013-01-25 02:44:00,
2013-01-24 21:49:00,12.6,-15.1,30.41,WNW,287,5.8,5.8,27,0.00,NA,NA,-99.99,VWS Version 10.38,2013-01-25 02:49:00,
2013-01-24 21:54:00,12.6,-15.1,30.41,West,267,4.9,4.9,27,0.00,NA,NA,-99.99,VWS Version 10.38,2013-01-25 02:54:00,
2013-01-24 21:59:00,12.6,-15.1,30.41,West,277,7.6,7.6,27,0.00,NA,NA,-99.99,VWS Version 10.38,2013-01-25 02:59:00,
2013-01-24 22:04:00,12.6,-15.1,30.41,West,260,8.1,8.1,27,0.00,NA,NA,-99.99,VWS Version 10.38,2013-01-25 03:04:00,
2013-01-24 22:09:00,12.6,-15.1,30.41,WNW,289,10.1,10.1,27,0.00,NA,NA,-99.99,VWS Version 10.38,2013-01-25 03:09:00,
2013-01-24 22:14:00,12.6,-15.1,30.41,NW,309,7.2,7.2,27,0.00,NA,NA,-99.99,VWS Version 10.38,2013-01-25 03:14:00,
2013-01-24 22:24:00,12.6,-15.1,30.41,WNW,283,8.7,8.7,27,0.00,NA,NA,-99.99,VWS Version 10.38,2013-01-25 03:24:00,
2013-01-24 22:29:00,12.4,-15.2,30.41,NNW,341,5.4,5.4,27,0.00,NA,NA,-99.99,VWS Version 10.38,2013-01-25 03:29:00,
2013-01-24 22:34:00,12.2,-15.4,30.41,West,268,11.0,11.0,27,0.00,NA,NA,-99.99,VWS Version 10.38,2013-01-25 03:34:00,
2013-01-24 22:39:00,12.2,-15.4,30.41,SW,229,6.3,6.3,27,0.00,NA,NA,-99.99,VWS Version 10.38,2013-01-25 03:39:00,
2013-01-24 22:44:00,12.4,-15.2,30.41,West,260,4.9,4.9,27,0.00,NA,NA,-99.99,VWS Version 10.38,2013-01-25 03:44:00,
2013-01-24 22:49:00,12.2,-15.4,30.44,West,272,6.3,6.3,27,0.00,NA,NA,-99.99,VWS Version 10.38,2013-01-25 03:49:00,
2013-01-24 22:54:00,12.4,-15.2,30.44,WNW,283,5.4,5.4,27,0.00,NA,NA,-99.99,VWS Version 10.38,2013-01-25 03:54:00,
2013-01-24 23:09:00,12.2,-15.4,30.44,WNW,293,8.7,8.7,27,0.00,NA,NA,-99.99,VWS Version 10.38,2013-01-25 04:09:00,
2013-01-24 23:14:00,12.4,-15.2,30.44,WNW,291,9.6,9.6,27,0.00,NA,NA,-99.99,VWS Version 10.38,2013-01-25 04:14:00,
2013-01-24 23:19:00,12.4,-15.2,30.44,NW,308,8.3,8.3,27,0.00,NA,NA,-99.99,VWS Version 10.38,2013-01-25 04:19:00,
2013-01-24 23:24:00,12.4,-15.2,30.44,NW,315,5.8,5.8,27,0.00,NA,NA,-99.99,VWS Version 10.38,2013-01-25 04:24:00,
2013-01-24 23:29:00,12.6,-15.1,30.44,North,350,12.8,12.8,27,0.00,NA,NA,-99.99,VWS Version 10.38,2013-01-25 04:29:00,